Regional Weather Roundup
Issued by NWS

Home | Current Version | Previous Version | Text Only | Print | Product List | Glossary Off
Versions: 1 2 3 4 5 6 7 8 9 10 11 12 13 14 15 16 17 18 19 20 21 22 23 24 25 26 27 28 29 30 31 32 33 34 35 36 37 38 39 40 41 42 43 44 45 46 47 48 49 50

000
ASUS43 KBIS 221020
RWRND

NORTH DAKOTA REGIONAL WEATHER ROUNDUP
NATIONAL WEATHER SERVICE BISMARCK ND
500 AM CDT FRI AUG 22 2014

NOTE: "FAIR" INDICATES FEW OR NO CLOUDS BELOW 12,000 FEET WITH NO
SIGNIFICANT WEATHER AND/OR OBSTRUCTIONS TO VISIBILITY.


NDZ001>003-009>011-017-221100-
NORTHWEST NORTH DAKOTA

CITY           SKY/WX    TMP DP  RH WIND       PRES   REMARKS
WILLISTON      CLOUDY    62  57  83 NE7       30.06R
MINOT          CLOUDY    61  59  93 N9        30.02R FOG
MINOT AFB      LGT RAIN  60  60 100 N12       30.03R
$$

NDZ018>021-031>035-040>046-221100-
SOUTHWEST NORTH DAKOTA

CITY           SKY/WX    TMP DP  RH WIND       PRES   REMARKS
BISMARCK       LGT RAIN  66  64  93 CALM      30.02S
DICKINSON      CLOUDY    63  61  93 E3        30.03R FOG
GARRISON         N/A     64  63  96 NE3       30.02R
HETTINGER ARPT RAIN      61  59  93 E12       30.02F FOG
$$

NDZ004>008-012>016-024-026-027-054-221100-
NORTHEAST NORTH DAKOTA

CITY           SKY/WX    TMP DP  RH WIND       PRES   REMARKS
GRAND FORKS    CLOUDY    68  67  96 NW9       29.92R
GRND FRKS AFB  CLOUDY    67  67 100 N8        29.94R
DEVILS LAKE    CLOUDY    64  59  82 N12       29.98R
$$

NDZ022-023-025-028>030-036>039-047>053-221100-
SOUTHEAST NORTH DAKOTA

CITY           SKY/WX    TMP DP  RH WIND       PRES   REMARKS
FARGO          FOG       65  65 100 CALM      29.91R VSB 1/4
JAMESTOWN      MOCLDY    67  65  93 N8        29.96R
$$



USA.gov is the U.S. government's official web portal to all federal, state and local government web resources and services.